Location: Brunnen
(48.6541°N, 10.9920°E)
Time: 09:33:46
(UTC+00:00)

Daily predictions for brighter satellites

Satellite Brightness Start Highest point End
(mag) Time Altitude Azimuth Time Altitude Azimuth Time Altitude Azimuth
Meteor 2-4 Rocket 3.6 19:42:36 10° S 19:47:58 84° E 19:53:21 10° NNE
NOSS 2-2 (E) 4.4 19:46:51 10° SSE 19:49:39 22° ESE 19:52:40 10° ENE
STARLINK-1125 4.2 19:46:08 10° WNW 19:50:08 46° SW 19:54:05 10° SE
EXPRESS MD2 4.0 19:47:51 10° SSW 19:50:31 30° SE 19:54:59 10° ENE
STARLINK-1098 3.9 19:48:20 10° WNW 19:52:29 71° NNE 19:56:37 10° ESE
Cosmos 1833 Rocket 3.4 19:47:22 10° NW 19:52:48 52° WSW 19:58:13 10° S
Cosmos 2297 4.3 19:49:23 10° S 19:54:35 38° ESE 19:59:49 10° NE
STARLINK-1109 4.3 19:51:08 10° WNW 19:55:05 43° SW 19:59:01 10° SE
Cosmos 1943 Rocket 3.6 19:51:39 10° SE 19:55:16 18° E 19:58:55 10° ENE
STARLINK-1123 3.8 19:53:18 10° WNW 19:57:27 74° NNE 20:01:36 10° ESE
STARLINK-1246 3.6 19:54:23 10° WSW 19:58:31 84° SSE 20:02:41 10° ENE
Cosmos 2082 Rocket 2.4 19:53:49 10° NNW 19:59:33 73° WSW 20:05:12 10° SSE
STARLINK-1091 4.4 19:56:07 10° WNW 20:00:01 40° SW 20:03:54 10° SSE
IGS 5A 3.8 19:56:01 10° SSE 20:00:02 52° ENE 20:04:06 10° N
Cosmos 1420 Rocket 4.3 19:55:44 10° SSW 20:00:56 75° WNW 20:06:09 10° NNE
Cosmos 1452 Rocket 3.5 19:55:55 10° SSW 20:01:11 80° ESE 20:06:30 10° NNE
Cosmos 332 Rocket 3.8 19:56:38 10° S 20:01:28 64° ESE 20:06:20 10° NNE
BREEZE-M DEB 3.8 19:59:48 10° S 20:01:35 17° SE 20:04:18 10° E
Intercosmos 24 3.7 19:58:45 10° N 20:02:21 87° W 20:06:09 10° S
STARLINK-1097 3.7 19:58:18 10° WNW 20:02:28 77° NNE 20:06:37 10° ESE
Landsat 7 4.0 19:58:22 10° SSE 20:03:03 59° ENE 20:07:45 10° N
STARLINK-1224 3.6 19:59:20 10° WSW 20:03:29 89° SSE 20:07:39 10° ENE
STARLINK-1099 3.7 20:03:16 10° WNW 20:07:26 81° NNE 20:11:36 10° ESE
Cosmos 1461 3.0 20:03:46 10° SSW 20:07:48 55° ESE 20:12:06 10° NE
STARLINK-1225 3.7 20:04:20 10° WSW 20:08:29 87° NNW 20:12:39 10° ENE
Okean 3 4.1 20:05:43 10° SSW 20:09:58 61° WNW 20:14:15 10° N
SAR-Lupe-2 3.9 20:07:23 10° NNE 20:10:53 46° E 20:14:20 10° S
Cosmos 2369 Rocket 3.7 20:07:32 10° SE 20:11:12 18° E 20:14:49 10° ENE
STARLINK-1104 3.6 20:08:15 10° WNW 20:12:25 85° NNE 20:16:34 10° ESE
STARLINK-1230 3.7 20:09:18 10° WSW 20:13:27 83° NNW 20:17:37 10° ENE
STARLINK-1212 4.4 20:10:41 10° WNW 20:13:36 35° N 20:16:30 10° ENE
STARLINK-1105 4.4 20:11:10 10° WNW 20:14:04 35° N 20:16:58 10° ENE
NOSS 2-2 (C) 4.0 20:10:59 10° S 20:14:06 29° ESE 20:17:30 10° ENE
STARLINK-1247 4.4 20:12:02 10° WNW 20:14:57 35° N 20:17:53 10° ENE
STARLINK-1227 4.4 20:12:32 10° WNW 20:15:26 35° N 20:18:21 10° ENE
STARLINK-1226 4.4 20:13:24 10° WNW 20:16:19 35° N 20:19:14 10° ENE
SL-4 R/B 3.8 20:15:25 10° WNW 20:17:11 15° WSW 20:18:53 10° SW
STARLINK-1215 4.4 20:14:18 10° WNW 20:17:13 35° N 20:20:09 10° ENE
STARLINK-1144 3.6 20:13:14 10° WNW 20:17:24 90° ENE 20:21:27 11° ESE
Cosmos 2221 Rocket 4.4 20:13:25 10° SSW 20:17:51 57° WNW 20:22:23 10° N
ATLAS 2AS CENTAUR R/B 4.3 20:13:17 10° SE 20:18:14 18° ESE 20:23:12 10° ENE
STARLINK-1243 3.8 20:14:18 10° WSW 20:18:27 79° NNW 20:22:37 10° ENE
STARLINK-1217 4.4 20:16:07 10° WNW 20:19:02 35° N 20:21:58 10° ENE
SPOT 5 3.6 20:14:18 11° SE 20:19:11 48° ENE 20:24:20 10° N
NOSS 3-2 (A) 4.3 20:12:20 10° NW 20:19:36 64° NE 20:27:48 10° SE
STARLINK-1229 4.4 20:17:02 10° WNW 20:19:57 36° N 20:22:53 10° ENE
STARLINK-1270 4.4 20:17:55 10° WNW 20:20:51 36° N 20:23:47 10° ENE
NOSS 8 (F) 4.1 20:18:12 10° SW 20:21:23 88° NW 20:24:27 10° NE
Meteor 1-13 Rocket 4.4 20:15:52 10° SSW 20:21:31 81° WNW 20:27:18 10° N
STARLINK-1103 3.6 20:18:12 10° WNW 20:22:23 86° SSW 20:26:14 12° ESE
STARLINK-1189 4.4 20:19:43 10° WNW 20:22:39 36° N 20:25:35 10° ENE
STARLINK-1236 3.8 20:19:17 10° WSW 20:23:25 75° NNW 20:27:35 10° ENE
STARLINK-1188 4.4 20:20:39 10° WNW 20:23:34 36° N 20:26:31 10° ENE
ERS-1 Rocket 3.2 20:19:40 11° SSE 20:24:20 59° ENE 20:29:19 10° N
STARLINK-1187 4.3 20:21:44 10° WNW 20:24:39 36° N 20:27:35 10° ENE
STARLINK-1191 4.4 20:23:05 10° WNW 20:26:00 36° N 20:28:55 10° ENE
STARLINK-1221 4.3 20:24:03 10° WNW 20:26:58 36° N 20:29:53 10° ENE
STARLINK-1101 3.6 20:23:11 10° WNW 20:27:21 81° SSW 20:31:00 13° ESE
STARLINK-1222 4.3 20:24:54 10° WNW 20:27:49 36° N 20:30:44 10° ENE
STARLINK-1214 4.3 20:25:47 10° WNW 20:28:43 36° N 20:31:38 10° ENE
Cosmos 1066 Rocket 4.1 20:23:49 10° S 20:29:08 65° E 20:34:27 10° NNE
USA 245 2.9 20:27:56 11° S 20:30:46 56° WSW 20:33:17 10° NNW
USA 238 DEB 4.0 20:24:23 10° NW 20:31:33 70° NE 20:38:25 12° SE
USA 238 4.1 20:24:29 10° NW 20:31:39 69° NE 20:38:32 12° SE
STARLINK-1102 3.6 20:28:11 10° WNW 20:32:19 77° SSW 20:35:48 14° SE
STARLINK-1228 4.2 20:29:51 10° WNW 20:33:14 44° N 20:36:37 10° E
STARLINK-1269 4.0 20:29:16 10° WSW 20:33:24 69° NNW 20:37:33 10° ENE
Okean 1 Rocket 3.1 20:29:24 10° N 20:33:55 84° E 20:37:54 13° S
Cosmos 1805 3.6 20:30:19 10° N 20:34:10 51° ENE 20:37:07 16° SSE
Cosmos 2278 Rocket 3.7 20:29:01 10° WSW 20:34:21 40° NW 20:39:43 10° NNE
TSX-5 4.3 20:28:50 10° SSW 20:34:25 89° WNW 20:38:42 10° NNE
Resurs 01 Rocket 3.3 20:30:32 10° SSW 20:34:27 30° W 20:38:23 10° NNW
Nadezhda 4 Rocket 4.0 20:29:31 10° S 20:35:36 70° E 20:41:41 10° NNE
STARLINK-1235 4.2 20:33:30 10° WNW 20:36:36 41° N 20:39:42 10° E
STARLINK-1111 3.6 20:33:09 10° WNW 20:37:17 72° SSW 20:40:34 16° SE
STARLINK-1200 4.1 20:34:15 10° WSW 20:38:23 66° NNW 20:42:31 10° ENE
Cosmos 1455 Rocket 4.2 20:35:34 10° N 20:39:26 30° ENE 20:42:18 15° SE
STARLINK-1073 3.7 20:38:08 10° WNW 20:42:16 68° SSW 20:45:22 17° SE
SL-8 R/B 3.9 20:37:42 10° W 20:42:26 59° SSW 20:46:16 15° SE
STARLINK-1192 4.1 20:39:16 10° W 20:43:23 63° NNW 20:47:31 10° ENE
ATLAS 3B CENTAUR R/B 4.3 20:38:39 10° SW 20:47:07 20° SSW 20:50:57 14° SSE
STARLINK-1121 3.7 20:43:07 10° WNW 20:47:14 63° SSW 20:50:08 18° SE
SL-4 R/B 3.4 20:43:59 10° S 20:47:49 24° SE 20:51:42 10° E
Terra 2.0 20:44:22 16° SSE 20:48:01 59° ENE 20:52:43 10° N
Cosmos 1110 Rocket 3.9 20:42:56 10° SSW 20:48:07 82° ESE 20:53:19 10° NNE
STARLINK-1244 4.2 20:44:16 10° W 20:48:22 61° NNW 20:52:29 10° ENE
Spot 2 Rocket 4.3 20:44:29 10° S 20:49:21 48° W 20:54:15 10° NNW
SPOT 1/Viking Rocket 3.8 20:45:17 11° S 20:50:10 65° WSW 20:55:19 10° NNW
Abrixas rocket 3.0 20:48:11 10° W 20:50:48 29° SSW 20:51:50 23° S
Cosmos 1842 4.2 20:48:52 19° SE 20:50:58 32° E 20:54:29 10° NNE
CARTOSAT-1 3.6 20:47:49 16° SSE 20:51:17 87° WSW 20:55:38 10° NNW
STARLINK-1106 3.8 20:48:08 10° WNW 20:52:13 59° SSW 20:54:56 20° SE
NOSS 8 (H) 4.4 20:49:27 10° SW 20:52:34 71° NW 20:55:39 10° NE
STARLINK-1138 4.3 20:49:16 10° W 20:53:22 58° NNW 20:57:28 10° ENE
STARLINK-1234 3.9 20:51:17 10° WNW 20:54:28 48° NNE 20:57:40 10° E
STARLINK-1112 3.8 20:53:06 10° WNW 20:57:10 55° SSW 20:59:42 21° SE
STARLINK-1143 4.3 20:54:15 10° W 20:58:20 57° NNW 21:02:26 10° ENE
STARLINK-1209 3.7 20:57:15 10° WNW 21:00:28 52° NNE 21:03:27 12° E
STARLINK-1128 3.9 20:58:05 10° WNW 21:02:07 51° SW 21:04:28 23° SSE
STARLINK-1241 4.4 20:59:18 10° W 21:03:23 55° NNW 21:07:27 10° ENE
SWAS 4.4 20:59:42 10° NNW 21:04:03 86° ENE 21:06:45 22° SSE
Cosmos 1331 Rocket 4.0 20:59:45 10° SSW 21:04:55 82° WNW 21:10:09 10° NNE
Aureole 2 Rocket 3.9 21:02:56 10° SW 21:05:46 32° WNW 21:08:29 10° N
STARLINK-1113 4.0 21:03:05 10° WNW 21:07:05 48° SW 21:09:15 24° SSE
Cosmos 1733 3.1 21:03:28 10° N 21:07:19 82° E 21:09:32 24° SSE
STARLINK-1239 4.5 21:04:17 10° W 21:08:21 53° NNW 21:12:26 10° ENE
COSMOS 2455 4.3 21:09:45 17° SE 21:11:31 19° ESE 21:15:35 10° ENE
STARLINK-1119 4.1 21:08:07 10° WNW 21:12:04 44° SW 21:14:04 25° SSE
Cosmos 1378 3.4 21:09:41 13° SSW 21:12:54 64° W 21:16:37 10° N
Cosmos 1486 Rocket 4.2 21:09:29 10° NNW 21:14:48 67° ENE 21:18:13 22° SE
Cosmos 1302 Rocket 4.0 21:10:13 12° S 21:15:00 68° ESE 21:20:17 10° NNE
USA 215 4.0 21:09:00 10° E 21:15:19 53° NNE 21:21:37 10° WNW
Cosmos 1271 Rocket 3.9 21:14:22 23° SE 21:15:41 28° E 21:19:04 10° NNE
Cosmos 1544 Rocket 3.9 21:12:05 10° N 21:16:20 50° ENE 21:18:39 24° SE
Cosmos 1242 Rocket 3.2 21:15:26 27° SE 21:16:49 38° E 21:20:16 10° NNE
STARLINK-1114 4.2 21:13:05 10° WNW 21:17:00 41° SW 21:18:49 26° SSE
MTI 3.7 21:14:32 10° NNE 21:17:40 64° ESE 21:18:58 31° S
Lacrosse 5 4.2 21:17:17 10° W 21:18:59 12° WSW 21:20:40 10° SW
STARLINK-60 3.7 21:20:11 31° SE 21:20:11 31° SE 21:22:39 10° ENE
Cosmos 1092 Rocket 4.0 21:15:30 13° S 21:21:08 87° W 21:27:20 10° N
STARLINK-1130 (DARKSAT) 4.3 21:18:06 10° WNW 21:21:58 38° SW 21:23:37 26° S
NOSS 2-2 (D) 3.6 21:18:51 10° SW 21:22:25 66° NW 21:26:31 10° NE
CENTAUR R/B 3.2 21:16:12 10° NW 21:24:10 81° NE 21:31:08 18° SE
Cosmos 1707 3.9 21:24:35 24° ESE 21:25:47 29° E 21:29:10 10° NNE
STARLINK-1084 4.4 21:23:07 10° WNW 21:26:55 35° SW 21:28:24 27° S
ATLAS 3B R/B 3.4 21:20:47 10° NW 21:27:20 49° NE 21:33:57 10° ESE
SL-27 R/B 2.5 21:24:22 10° NNW 21:27:59 77° WSW 21:29:28 33° S
NOSS 3-2 (C) 4.1 21:21:55 10° NW 21:29:24 89° SW 21:35:37 20° SE
Cosmos 1766 4.2 21:26:26 10° NNW 21:30:14 43° W 21:32:47 19° SSW
Cosmos 1726 3.7 21:28:18 10° NNE 21:31:24 24° ENE 21:32:50 19° ESE
ALOS 2 4.4 21:30:24 14° ESE 21:32:58 22° ENE 21:36:22 10° NNE
Cosmos 1867 3.9 21:28:53 10° NW 21:34:20 61° NE 21:38:07 20° ESE
COSMOS 2487 4.1 21:32:34 10° N 21:35:31 25° ENE 21:37:03 18° E
Cosmos 1943 Rocket 2.2 21:32:45 10° SSW 21:38:19 80° WNW 21:43:57 10° NNE
Cosmos 1992 Rocket 4.4 21:36:08 26° SSE 21:38:36 44° ESE 21:43:33 10° NE
NOSS 3-4 (A) 3.8 21:36:32 22° S 21:39:51 42° ESE 21:45:43 10° NE
NOSS 3-4 (C) 3.8 21:36:40 22° S 21:39:58 41° ESE 21:45:49 10° NE
STARLINK-1232 4.5 21:37:24 10° WNW 21:41:27 50° N 21:45:30 10° E
SeaSat 1 3.1 21:38:16 10° NE 21:42:50 36° ESE 21:44:34 28° SSE
EO 1 Del DPAF 3.7 21:39:51 10° NNE 21:43:28 42° E 21:44:29 33° SE
STARLINK-1208 4.4 21:42:22 10° WNW 21:46:26 51° NNE 21:50:30 10° E
Cosmos 1975 Rocket 3.7 21:44:36 16° SSW 21:47:56 54° WNW 21:52:17 10° N
STARLINK-1212 2.9 21:46:35 10° WNW 21:49:42 76° NNE 21:50:47 37° ESE
STARLINK-1105 2.9 21:47:04 10° WNW 21:50:10 77° NNE 21:51:13 38° ESE
STARLINK-1247 2.9 21:47:56 10° WNW 21:51:04 78° NNE 21:52:06 38° ESE
Meteor 2-10 4.2 21:46:13 10° N 21:51:13 59° ENE 21:53:43 28° SE
STARLINK-1271 4.4 21:47:23 10° WNW 21:51:28 53° NNE 21:55:32 10° E
STARLINK-1227 2.9 21:48:25 10° WNW 21:51:33 78° NNE 21:52:32 39° ESE
Cosmos 292 Rocket 3.7 21:48:20 21° SSW 21:51:34 86° ESE 21:56:28 10° NNE
BREEZE-M DEB (TANK) 3.4 21:38:44 10° WSW 21:52:00 85° SSE 21:55:35 10° ENE
STARLINK-1226 2.9 21:49:17 10° WNW 21:52:25 79° NNE 21:53:24 40° ESE
BREEZE-M DEB (TANK) 2.9 21:48:58 10° W 21:52:47 85° N 21:56:45 10° E
STARLINK-1215 2.9 21:50:11 10° WNW 21:53:18 80° NNE 21:54:16 41° ESE
RESURS DK-1 4.4 21:53:57 14° E 21:53:57 14° E 21:55:52 10° ENE
Cosmos 2369 Rocket 2.2 21:49:04 11° SSW 21:54:30 82° WNW 22:00:11 10° NNE
S3M 4.0 21:48:26 10° N 21:54:36 71° E 21:58:11 27° SSE
STARLINK-1217 2.8 21:52:00 10° WNW 21:55:08 82° NNE 21:56:01 43° ESE
STARLINK-1229 2.8 21:52:54 10° WNW 21:56:02 83° NNE 21:56:54 44° ESE
STARLINK-1154 4.3 21:52:22 10° WNW 21:56:27 54° NNE 22:00:32 10° E
STARLINK-1270 2.8 21:53:48 10° WNW 21:56:56 84° NNE 21:57:45 46° ESE
Aureole 3 Rocket 4.4 21:52:06 10° NNW 21:58:16 78° W 22:03:54 23° S
STARLINK-1189 2.8 21:55:35 10° WNW 21:58:44 86° NNE 21:59:29 48° ESE
STARLINK-1188 2.8 21:56:30 10° WNW 21:59:38 87° NNE 22:00:22 50° ESE
ATLAS CENTAUR R/B 2.0 21:59:35 35° SSE 22:00:21 38° ESE 22:04:14 10° NE
STARLINK-1187 2.7 21:57:36 10° WNW 22:00:43 84° SSW 22:01:14 58° SE
Cosmos 1340 Rocket 3.3 21:57:06 10° N 22:01:04 50° ENE 22:02:31 33° SE
STARLINK-1197 4.2 21:57:20 10° WNW 22:01:26 56° NNE 22:05:31 10° E
STARLINK-1191 2.7 21:58:57 10° WNW 22:02:04 90° WSW 22:02:39 56° ESE
Aureole 3 3.9 21:59:59 10° N 22:02:53 29° ENE 22:03:24 27° E
STARLINK-1221 2.7 21:59:54 10° WNW 22:03:01 89° SSW 22:03:34 57° ESE
STARLINK-1222 2.7 22:00:45 10° WNW 22:03:51 88° SW 22:04:23 58° ESE
Thor Agena Rocket 3.5 21:59:00 10° NNE 22:04:19 77° ESE 22:07:12 28° S
NOSS 7 (A) 4.4 22:04:00 48° SSW 22:04:44 84° SE 22:07:40 10° NE
Cosmos 1025 Rocket 2.9 22:02:58 35° S 22:04:44 82° E 22:09:04 10° NNE
STARLINK-1214 2.7 22:01:39 10° WNW 22:04:45 87° SSW 22:05:15 60° ESE
EXPRESS MD2 4.3 22:01:59 10° W 22:06:06 82° N 22:14:54 10° E
STARLINK-1198 4.2 22:02:19 10° WNW 22:06:25 58° NNE 22:10:31 10° E
ATLAS 2AS CENTAUR R/B 3.0 22:00:30 12° SSW 22:08:00 70° SE 22:15:54 10° NE
Cosmos 1553 Rocket 4.1 22:01:49 10° NNW 22:08:05 72° W 22:11:43 26° S
Cosmos 1656 Rocket 3.6 22:04:50 25° S 22:08:07 70° ESE 22:13:40 10° NNE
BREEZE M DEB (TANK) 1.8 22:05:19 10° W 22:08:18 75° N 22:08:33 63° NE
Cosmos 1953 2.3 22:05:25 10° N 22:09:25 73° E 22:10:41 41° SSE
BREEZE-M DEB (TANK) 4.1 21:57:49 10° WNW 22:09:58 59° SW 22:11:56 32° SSE
Cosmos 1470 3.3 22:06:43 10° NNW 22:10:27 47° W 22:11:51 31° SSW
STARLINK-1228 3.1 22:07:07 10° WNW 22:10:35 65° SSW 22:11:08 54° SSE
STARLINK-1199 4.1 22:07:19 10° WNW 22:11:26 60° NNE 22:15:21 11° E
APEX 4.3 22:06:47 13° SSW 22:12:43 81° WNW 22:17:59 10° NNE
STARLINK-1235 2.9 22:09:50 10° WNW 22:13:03 64° SSW 22:13:12 62° SSW
Cosmos 2292 Rocket 3.6 22:13:24 39° ESE 22:13:57 42° E 22:17:01 10° NNE
Cosmos 968 Rocket 3.9 22:10:16 10° NNW 22:15:15 51° WSW 22:17:31 29° SSW
STARLINK-1210 4.0 22:12:17 10° WNW 22:16:25 63° NNE 22:20:07 13° E
Cosmos 1455 Rocket 4.5 22:13:27 10° NNW 22:17:12 29° W 22:19:25 19° SW
Cosmos 1655 Rocket 4.0 22:15:01 27° S 22:18:38 86° E 22:24:57 10° N
SL-4 R/B 2.1 22:20:18 33° NNE 22:20:18 33° NNE 22:21:48 10° N
STARLINK-1219 3.9 22:17:16 10° WNW 22:21:24 65° NNE 22:24:53 14° E
ATLAS 5 CENTAUR R/B 1.3 22:21:46 41° SSW 22:22:44 65° SE 22:24:58 10° NE
Cosmos 1758 4.2 22:20:06 10° NNW 22:23:56 41° W 22:25:25 29° SW
STARLINK-52 4.0 22:26:27 33° E 22:26:27 33° E 22:28:30 10° ENE
Terra 3.8 22:23:15 12° SW 22:26:09 19° W 22:29:32 10° NW
STARLINK-1211 3.9 22:22:16 10° WNW 22:26:24 68° NNE 22:29:40 16° ESE
SL-4 R/B 2.3 22:22:17 10° WSW 22:27:06 79° SSE 22:31:57 10° ENE
Cosmos 2228 3.6 22:23:02 10° N 22:27:08 45° ENE 22:28:36 32° SE
Cosmos 1726 Rocket 4.4 22:23:49 10° N 22:27:53 38° ENE 22:29:31 28° ESE
Meteor 2-15 4.4 22:21:47 10° N 22:27:58 78° E 22:31:06 31° SSE
STARLINK-1234 3.7 22:27:39 10° WNW 22:30:16 40° WSW 22:30:16 40° WSW
STARLINK-1245 3.8 22:27:14 10° WNW 22:31:23 71° NNE 22:34:26 18° ESE
In-Cosmos 22 4.0 22:30:05 34° S 22:32:28 79° E 22:37:46 10° NNE
STARLINK-1233 3.7 22:32:12 10° WNW 22:36:21 75° NNE 22:39:11 20° ESE
Cosmos 2266 Rocket 3.9 22:33:43 30° S 22:36:55 87° E 22:42:59 10° N
STARLINK-1209 4.0 22:33:51 10° WNW 22:36:13 33° WSW 22:36:13 33° WSW
STARLINK-1204 3.7 22:37:11 10° WNW 22:41:21 78° NNE 22:43:59 22° ESE
SJ 16-02 3.7 22:40:15 10° N 22:43:19 18° NE 22:46:21 10° E
STARLINK-1238 3.6 22:42:11 10° WNW 22:46:21 82° NNE 22:48:47 24° ESE
Cosmos 1536 Rocket 4.4 22:45:44 25° SW 22:47:49 42° WNW 22:52:00 10° N
Meteor 2-15 Rocket 4.4 22:41:42 10° N 22:47:54 87° E 22:50:55 32° S
Cosmos 1674 2.6 22:48:20 55° SSE 22:49:02 74° E 22:52:51 10° NNE
Helios 1B rocket 4.2 22:46:16 10° NE 22:49:18 19° E 22:50:09 18° ESE
STARLINK-1201 3.5 22:47:09 10° WNW 22:51:19 87° NNE 22:53:33 27° ESE
STARLINK-60 3.6 22:52:38 10° W 22:55:46 55° NNW 22:58:55 10° ENE
STARLINK-1206 3.5 22:52:09 10° WNW 22:56:20 89° S 22:58:21 29° ESE
COSMOS 2455 2.8 22:52:50 24° SW 22:56:41 87° WNW 23:02:46 10° NE
Cosmos 2219 4.0 22:52:37 10° NNW 22:58:07 47° NE 23:02:17 17° ESE
USA 215 3.2 22:52:57 17° SE 22:58:09 79° SW 23:04:45 10° WNW
STARLINK-1350 4.4 23:01:49 31° ESE 23:01:49 31° ESE 23:04:22 10° ENE
STARLINK-1205 3.5 22:57:07 10° WNW 23:01:17 85° SSW 23:03:07 32° ESE
Cosmos 2297 Rocket 3.2 22:56:57 10° NNW 23:02:21 43° NE 23:07:00 13° ESE
Helios 1A 2.9 23:01:35 46° SSE 23:02:49 89° ENE 23:07:02 10° NNW
STARLINK-1237 4.5 22:59:20 10° WNW 23:03:23 51° N 23:07:27 10° E
Lacrosse 4 Rocket 4.0 23:02:37 10° N 23:05:50 20° NE 23:08:59 10° E
STARLINK-1218 3.5 23:02:07 10° WNW 23:06:17 80° SSW 23:07:55 36° SE
Cosmos 1726 3.5 23:03:24 10° NNW 23:06:35 27° W 23:07:20 25° WSW
STARLINK-1368 4.1 23:08:27 36° ESE 23:08:27 36° ESE 23:11:20 10° ENE
Cosmos 1174 4.1 23:06:36 33° WSW 23:07:47 53° NW 23:11:35 10° NNE
STARLINK-1202 4.4 23:04:20 10° WNW 23:08:24 52° NNE 23:12:28 10° E
ALOS 2 3.1 23:07:47 36° SW 23:09:01 46° W 23:13:16 10° NNW
Timation 2 Rocket 3.9 23:03:29 10° NNW 23:09:50 80° WSW 23:12:54 31° SSE
Cosmos 2058 Rocket 3.2 23:06:00 10° N 23:10:27 68° ENE 23:11:58 39° SSE
COSMOS 2487 3.9 23:07:37 10° NW 23:10:30 25° WSW 23:10:32 25° WSW
STARLINK-1369 4.0 23:11:47 39° ESE 23:11:47 39° ESE 23:14:49 10° ENE
STARLINK-1254 3.5 23:07:06 10° WNW 23:11:15 76° SSW 23:12:41 39° SE
CENTAUR R/B 4.1 23:07:27 10° NW 23:14:31 33° WSW 23:18:17 24° SSW
STARLINK-1372 3.9 23:15:07 43° ESE 23:15:07 43° ESE 23:18:20 10° ENE
STARLINK-1231 3.5 23:12:04 10° WNW 23:16:12 71° SSW 23:17:27 43° SE
Meteor 2-5 Rocket 3.6 23:14:12 35° S 23:16:38 84° E 23:22:18 10° NNE
ATLAS 3B R/B 3.0 23:11:35 10° NW 23:18:06 50° WSW 23:21:10 31° S
STARLINK-1378 3.7 23:18:28 46° SE 23:18:28 46° SE 23:21:51 10° ENE
STARLINK-1246 4.3 23:14:19 10° WNW 23:18:24 55° NNE 23:22:29 10° E
SL-14 R/B 3.4 23:19:11 48° SE 23:19:56 59° E 23:23:44 10° NNE
SeaSat 1 3.5 23:15:45 10° NNE 23:20:22 41° NW 23:24:20 13° WSW
Cosmos 1606 Rocket 4.0 23:16:14 10° NNW 23:20:26 50° W 23:21:36 38° SW
FALCON 9 DEB 3.0 23:20:07 57° WSW 23:20:45 90° NW 23:24:12 10° ENE
STARLINK-1232 3.5 23:17:04 10° WNW 23:21:11 66° SSW 23:22:15 46° SSE
STARLINK-1379 3.6 23:21:51 49° SE 23:21:51 49° SE 23:25:22 10° ENE
STARLINK-1329 3.5 23:23:14 51° SE 23:23:14 51° SE 23:26:50 10° ENE
STARLINK-1224 4.2 23:19:17 10° WNW 23:23:23 57° NNE 23:27:29 10° E
Meteor 2-21 4.4 23:20:59 33° S 23:23:58 83° E 23:30:13 10° N
STARLINK-29 3.5 23:24:02 26° W 23:25:39 58° NNW 23:28:49 10° ENE
STARLINK-1208 3.5 23:22:02 10° WNW 23:26:09 62° SSW 23:27:00 48° SSE
SL-16 R/B 4.3 23:21:24 10° ESE 23:26:20 26° ENE 23:31:18 10° N
STARLINK-1362 3.4 23:26:40 54° SSE 23:26:42 54° SSE 23:30:26 10° ENE
ATLAS CENTAUR R/B 1.7 23:26:12 10° NW 23:28:23 54° NE 23:32:29 10° ESE
STARLINK-1225 4.2 23:24:17 10° WNW 23:28:24 59° NNE 23:32:30 10° E
STARLINK-1373 3.4 23:30:05 56° SSE 23:30:16 57° SSE 23:34:02 10° ENE
NOSS 3-4 (A) 4.2 23:24:48 10° WSW 23:30:39 50° NW 23:36:58 10° NE
NOSS 3-4 (C) 4.2 23:24:53 10° WSW 23:30:44 51° NW 23:37:05 10° NE
STARLINK-1271 3.6 23:27:04 10° WNW 23:31:08 58° SSW 23:31:49 50° S
RESURS DK-1 2.5 23:29:48 39° SW 23:31:14 71° WNW 23:35:23 10° NNE
STARLINK-1365 3.4 23:31:12 57° S 23:31:30 60° SSE 23:35:17 10° ENE
STARLINK-1230 4.1 23:29:16 10° WNW 23:33:23 62° NNE 23:37:30 10° E
STARLINK-1390 3.3 23:33:34 58° S 23:33:52 60° SSE 23:37:39 10° ENE
Cosmos 1697 Rocket 4.3 23:32:47 17° SE 23:35:02 22° E 23:39:17 10° NE
Cosmos 2084 3.5 23:33:37 37° SW 23:35:21 88° NW 23:39:52 10° NE
STARLINK-1154 3.7 23:32:02 10° WNW 23:36:06 54° SW 23:36:35 50° S
Cosmos 1626 2.0 23:36:00 56° SSW 23:36:43 84° W 23:40:27 10° N
BREEZE-M R/B 3.5 23:31:44 17° SW 23:36:51 53° SSE 23:40:29 10° E
STARLINK-1243 4.0 23:34:15 10° WNW 23:38:24 64° NNE 23:42:31 10° ESE
Okean 1-7 Rocket 3.6 23:37:39 41° SSW 23:39:10 76° W 23:43:43 10° N
ATLAS CENTAUR R/B 2.9 23:35:43 12° WSW 23:39:18 33° NW 23:43:02 10° NNE
Cosmos 2227 Rocket 2.5 23:33:43 10° NNW 23:39:24 66° ENE 23:43:29 19° SE
STARLINK-1197 3.7 23:37:00 10° WNW 23:41:02 50° SW 23:41:21 49° SSW
CZ-4 R/B 3.8 23:37:19 10° NNE 23:42:06 73° ESE 23:43:50 39° S
STARLINK-1236 3.9 23:39:13 10° WNW 23:43:22 67° NNE 23:47:29 10° ESE
STARLINK-1198 3.8 23:42:00 10° WNW 23:46:00 47° SW 23:46:07 46° SSW
Cosmos 1602 Rocket 4.1 23:47:23 32° SE 23:48:52 46° E 23:53:02 10° NNE
Landsat 4 4.4 23:46:22 10° N 23:49:55 45° WNW 23:51:00 34° WSW
STARLINK-1199 3.9 23:47:01 10° WNW 23:50:55 43° SW 23:50:55 43° SW
Meteor 2-21 Rocket 4.5 23:50:06 31° SSW 23:53:14 79° W 23:59:29 10° N
STARLINK-1269 3.8 23:49:12 10° WNW 23:53:21 74° NNE 23:57:30 10° ESE
STARLINK-1210 4.1 23:52:01 10° WNW 23:55:42 40° SW 23:55:42 40° SW
